Time,TemperatureF,DewpointF,PressureIn,WindDirection,WindDirectionDegrees,WindSpeedMPH,WindSpeedGustMPH,Humidity,HourlyPrecipIn,Conditions,Clouds,dailyrainin,SoftwareType,DateUTC
2013-07-16 00:02:00,73.0,70.9,30.20,SE,126,11.0,11.0,93,0.00,,,0.00,Wunderground v.1.15,2013-07-16 05:02:00,
2013-07-16 00:08:00,72.9,70.8,30.20,SE,126,10.0,11.0,93,0.00,,,0.00,Wunderground v.1.15,2013-07-16 05:08:00,
2013-07-16 00:13:00,72.8,70.7,30.20,West,279,9.0,10.0,93,0.00,,,0.00,Wunderground v.1.15,2013-07-16 05:13:00,
2013-07-16 00:19:00,72.7,70.6,30.20,ESE,121,9.0,10.0,93,0.00,,,0.00,Wunderground v.1.15,2013-07-16 05:19:00,
2013-07-16 00:25:00,72.6,70.5,30.20,West,279,9.0,9.0,93,0.00,,,0.00,Wunderground v.1.15,2013-07-16 05:25:00,
2013-07-16 00:31:00,72.5,70.4,30.20,ESE,123,6.0,7.0,93,0.00,,,0.00,Wunderground v.1.15,2013-07-16 05:31:00,
2013-07-16 00:36:00,72.4,70.3,30.20,ESE,123,6.0,7.0,93,0.00,,,0.00,Wunderground v.1.15,2013-07-16 05:36:00,
2013-07-16 00:42:00,72.3,70.2,30.20,West,279,6.0,6.0,93,0.00,,,0.00,Wunderground v.1.15,2013-07-16 05:42:00,
2013-07-16 00:48:00,72.2,70.4,30.20,ESE,123,7.0,7.0,94,0.00,,,0.00,Wunderground v.1.15,2013-07-16 05:48:00,
2013-07-16 00:54:00,72.1,70.3,30.20,ESE,123,5.0,7.0,94,0.00,,,0.00,Wunderground v.1.15,2013-07-16 05:54:00,
2013-07-16 00:59:00,72.1,70.0,30.20,ESE,120,6.0,7.0,93,0.00,,,0.00,Wunderground v.1.15,2013-07-16 05:59:00,
2013-07-16 01:05:00,72.0,70.2,30.20,ESE,119,4.0,6.0,94,0.00,,,0.00,Wunderground v.1.15,2013-07-16 06:05:00,
2013-07-16 01:11:00,72.0,70.2,30.20,West,279,0.0,4.0,94,0.00,,,0.00,Wunderground v.1.15,2013-07-16 06:11:00,
2013-07-16 01:17:00,71.9,70.1,30.20,ENE,75,1.0,5.0,94,0.00,,,0.00,Wunderground v.1.15,2013-07-16 06:17:00,
2013-07-16 01:22:00,71.8,70.0,30.20,ENE,74,5.0,5.0,94,0.00,,,0.00,Wunderground v.1.15,2013-07-16 06:22:00,
2013-07-16 01:28:00,71.8,70.0,30.21,ENE,63,6.0,7.0,94,0.00,,,0.00,Wunderground v.1.15,2013-07-16 06:28:00,
2013-07-16 01:34:00,71.7,69.9,30.20,ENE,66,7.0,7.0,94,0.00,,,0.00,Wunderground v.1.15,2013-07-16 06:34:00,
2013-07-16 01:39:00,71.7,69.9,30.20,ENE,73,5.0,7.0,94,0.00,,,0.00,Wunderground v.1.15,2013-07-16 06:39:00,
2013-07-16 01:45:00,71.6,69.8,30.20,ENE,65,6.0,7.0,94,0.00,,,0.00,Wunderground v.1.15,2013-07-16 06:45:00,
2013-07-16 01:51:00,71.6,69.8,30.20,ENE,69,6.0,6.0,94,0.00,,,0.00,Wunderground v.1.15,2013-07-16 06:51:00,
2013-07-16 01:57:00,71.5,69.7,30.20,ENE,66,6.0,7.0,94,0.00,,,0.00,Wunderground v.1.15,2013-07-16 06:57:00,
2013-07-16 02:02:00,71.5,69.7,30.20,ENE,69,6.0,7.0,94,0.00,,,0.00,Wunderground v.1.15,2013-07-16 07:02:00,
2013-07-16 02:07:00,71.5,69.7,30.20,West,279,9.0,9.0,94,0.00,,,0.00,Wunderground v.1.15,2013-07-16 07:07:00,
2013-07-16 02:12:00,71.4,69.6,30.20,ENE,69,9.0,10.0,94,0.00,,,0.00,Wunderground v.1.15,2013-07-16 07:12:00,
2013-07-16 02:17:00,71.4,69.6,30.20,ENE,66,8.0,10.0,94,0.00,,,0.00,Wunderground v.1.15,2013-07-16 07:17:00,
2013-07-16 02:22:00,71.5,69.7,30.20,ENE,65,9.0,9.0,94,0.00,,,0.00,Wunderground v.1.15,2013-07-16 07:22:00,
2013-07-16 02:27:00,71.5,69.7,30.20,ENE,66,7.0,9.0,94,0.00,,,0.00,Wunderground v.1.15,2013-07-16 07:27:00,
2013-07-16 02:32:00,71.5,70.0,30.20,ENE,68,8.0,9.0,95,0.00,,,0.00,Wunderground v.1.15,2013-07-16 07:32:00,
2013-07-16 02:37:00,71.5,70.0,30.20,ENE,65,8.0,9.0,95,0.00,,,0.00,Wunderground v.1.15,2013-07-16 07:37:00,
2013-07-16 02:42:00,71.5,70.0,30.20,ENE,67,7.0,8.0,95,0.00,,,0.00,Wunderground v.1.15,2013-07-16 07:42:00,
2013-07-16 02:47:00,71.5,70.0,30.20,ENE,69,7.0,9.0,95,0.00,,,0.00,Wunderground v.1.15,2013-07-16 07:47:00,
2013-07-16 02:52:00,71.5,70.0,30.20,ENE,70,5.0,8.0,95,0.00,,,0.00,Wunderground v.1.15,2013-07-16 07:52:00,
2013-07-16 02:57:00,71.6,70.1,30.20,ENE,74,5.0,8.0,95,0.00,,,0.00,Wunderground v.1.15,2013-07-16 07:57:00,
2013-07-16 03:02:00,71.5,70.0,30.20,West,279,7.0,7.0,95,0.00,,,0.00,Wunderground v.1.15,2013-07-16 08:02:00,
2013-07-16 03:07:00,71.5,70.0,30.20,East,80,5.0,7.0,95,0.00,,,0.00,Wunderground v.1.15,2013-07-16 08:07:00,
2013-07-16 03:12:00,71.6,70.1,30.20,ENE,72,5.0,6.0,95,0.00,,,0.00,Wunderground v.1.15,2013-07-16 08:12:00,
2013-07-16 03:17:00,71.6,70.1,30.20,ENE,72,5.0,6.0,95,0.00,,,0.00,Wunderground v.1.15,2013-07-16 08:17:00,
2013-07-16 03:22:00,71.6,70.1,30.20,ENE,72,5.0,5.0,95,0.00,,,0.00,Wunderground v.1.15,2013-07-16 08:22:00,
2013-07-16 03:27:00,71.5,70.0,30.20,ENE,74,5.0,6.0,95,0.00,,,0.00,Wunderground v.1.15,2013-07-16 08:27:00,
2013-07-16 03:32:00,71.4,69.9,30.20,East,84,5.0,6.0,95,0.00,,,0.00,Wunderground v.1.15,2013-07-16 08:32:00,
2013-07-16 03:37:00,71.4,69.9,30.20,East,86,5.0,6.0,95,0.00,,,0.00,Wunderground v.1.15,2013-07-16 08:37:00,
2013-07-16 03:42:00,71.3,69.8,30.20,East,82,4.0,6.0,95,0.00,,,0.00,Wunderground v.1.15,2013-07-16 08:42:00,
2013-07-16 03:47:00,71.3,69.8,30.20,East,84,4.0,6.0,95,0.00,,,0.00,Wunderground v.1.15,2013-07-16 08:47:00,
2013-07-16 03:52:00,71.3,69.8,30.20,East,81,6.0,7.0,95,0.00,,,0.00,Wunderground v.1.15,2013-07-16 08:52:00,
2013-07-16 03:57:00,71.2,69.7,30.20,West,279,2.0,7.0,95,0.00,,,0.00,Wunderground v.1.15,2013-07-16 08:57:00,
2013-07-16 04:02:00,71.2,69.7,30.21,East,84,2.0,4.0,95,0.00,,,0.00,Wunderground v.1.15,2013-07-16 09:02:00,
2013-07-16 04:07:00,71.2,69.7,30.21,East,86,2.0,5.0,95,0.00,,,0.00,Wunderground v.1.15,2013-07-16 09:07:00,
2013-07-16 04:12:00,71.1,69.6,30.21,West,279,2.0,2.0,95,0.00,,,0.00,Wunderground v.1.15,2013-07-16 09:12:00,
2013-07-16 04:17:00,71.1,69.6,30.21,East,85,2.0,4.0,95,0.00,,,0.00,Wunderground v.1.15,2013-07-16 09:17:00,
2013-07-16 04:22:00,71.0,69.5,30.21,East,87,1.0,2.0,95,0.00,,,0.00,Wunderground v.1.15,2013-07-16 09:22:00,
2013-07-16 04:27:00,71.0,69.5,30.21,East,85,1.0,2.0,95,0.00,,,0.00,Wunderground v.1.15,2013-07-16 09:27:00,
2013-07-16 04:32:00,71.0,69.5,30.21,East,84,0.0,5.0,95,0.00,,,0.00,Wunderground v.1.15,2013-07-16 09:32:00,
2013-07-16 04:37:00,70.9,69.4,30.22,East,86,1.0,5.0,95,0.00,,,0.00,Wunderground v.1.15,2013-07-16 09:37:00,
2013-07-16 04:42:00,70.9,69.4,30.22,East,84,2.0,4.0,95,0.00,,,0.00,Wunderground v.1.15,2013-07-16 09:42:00,
2013-07-16 04:47:00,70.9,69.4,30.21,East,84,3.0,4.0,95,0.00,,,0.00,Wunderground v.1.15,2013-07-16 09:47:00,
2013-07-16 04:52:00,70.9,69.4,30.21,West,279,5.0,6.0,95,0.00,,,0.00,Wunderground v.1.15,2013-07-16 09:52:00,
2013-07-16 04:57:00,70.8,69.3,30.22,East,82,6.0,6.0,95,0.00,,,0.00,Wunderground v.1.15,2013-07-16 09:57:00,
2013-07-16 05:02:00,70.8,69.3,30.22,East,89,4.0,5.0,95,0.00,,,0.00,Wunderground v.1.15,2013-07-16 10:02:00,
2013-07-16 05:07:00,70.8,69.3,30.22,East,86,4.0,7.0,95,0.00,,,0.00,Wunderground v.1.15,2013-07-16 10:07:00,
2013-07-16 05:12:00,70.7,69.2,30.22,ESE,107,6.0,9.0,95,0.00,,,0.00,Wunderground v.1.15,2013-07-16 10:12:00,
2013-07-16 05:17:00,70.7,69.2,30.22,ESE,111,4.0,9.0,95,0.00,,,0.00,Wunderground v.1.15,2013-07-16 10:17:00,
2013-07-16 05:22:00,70.6,69.1,30.22,ESE,115,8.0,11.0,95,0.00,,,0.00,Wunderground v.1.15,2013-07-16 10:22:00,
2013-07-16 05:27:00,70.6,69.1,30.22,ESE,118,5.0,11.0,95,0.00,,,0.00,Wunderground v.1.15,2013-07-16 10:27:00,
2013-07-16 05:32:00,70.6,69.1,30.23,ESE,113,4.0,7.0,95,0.00,,,0.00,Wunderground v.1.15,2013-07-16 10:32:00,
2013-07-16 05:37:00,70.6,69.1,30.23,ESE,103,2.0,7.0,95,0.00,,,0.00,Wunderground v.1.15,2013-07-16 10:37:00,
2013-07-16 05:42:00,70.6,69.1,30.23,ESE,107,1.0,4.0,95,0.00,,,0.00,Wunderground v.1.15,2013-07-16 10:42:00,
2013-07-16 05:47:00,70.6,69.1,30.24,ESE,106,6.0,6.0,95,0.00,,,0.00,Wunderground v.1.15,2013-07-16 10:47:00,
2013-07-16 05:52:00,70.5,69.0,30.23,ESE,115,6.0,9.0,95,0.00,,,0.00,Wunderground v.1.15,2013-07-16 10:52:00,
2013-07-16 05:57:00,70.6,69.1,30.23,West,279,10.0,11.0,95,0.00,,,0.00,Wunderground v.1.15,2013-07-16 10:57:00,
2013-07-16 06:02:00,70.7,69.2,30.23,SE,130,7.0,7.0,95,0.00,,,0.00,Wunderground v.1.15,2013-07-16 11:02:00,
2013-07-16 06:07:00,70.7,69.2,30.23,West,279,6.0,10.0,95,0.00,,,0.00,Wunderground v.1.15,2013-07-16 11:07:00,
2013-07-16 06:12:00,70.7,69.2,30.23,SE,124,2.0,6.0,95,0.00,,,0.00,Wunderground v.1.15,2013-07-16 11:12:00,
2013-07-16 06:17:00,70.8,69.3,30.23,SE,125,5.0,7.0,95,0.00,,,0.00,Wunderground v.1.15,2013-07-16 11:17:00,
2013-07-16 06:22:00,70.9,69.4,30.24,ESE,122,2.0,6.0,95,0.00,,,0.00,Wunderground v.1.15,2013-07-16 11:22:00,
2013-07-16 06:27:00,71.0,69.8,30.24,West,279,5.0,6.0,96,0.00,,,0.00,Wunderground v.1.15,2013-07-16 11:27:00,
2013-07-16 06:32:00,71.1,69.9,30.24,SE,124,0.0,4.0,96,0.00,,,0.00,Wunderground v.1.15,2013-07-16 11:32:00,
2013-07-16 06:37:00,71.2,70.0,30.24,ESE,121,3.0,5.0,96,0.00,,,0.00,Wunderground v.1.15,2013-07-16 11:37:00,
2013-07-16 06:42:00,71.4,70.2,30.24,SE,124,4.0,7.0,96,0.00,,,0.00,Wunderground v.1.15,2013-07-16 11:42:00,
2013-07-16 06:47:00,71.5,70.3,30.24,SE,124,5.0,7.0,96,0.00,,,0.00,Wunderground v.1.15,2013-07-16 11:47:00,
2013-07-16 06:52:00,71.6,70.4,30.25,ESE,122,5.0,6.0,96,0.00,,,0.00,Wunderground v.1.15,2013-07-16 11:52:00,
2013-07-16 06:57:00,71.8,70.6,30.25,West,279,2.0,6.0,96,0.00,,,0.00,Wunderground v.1.15,2013-07-16 11:57:00,
2013-07-16 07:02:00,72.1,70.9,30.25,West,279,1.0,4.0,96,0.00,,,0.00,Wunderground v.1.15,2013-07-16 12:02:00,
2013-07-16 07:07:00,72.3,71.1,30.25,West,279,1.0,5.0,96,0.00,,,0.00,Wunderground v.1.15,2013-07-16 12:07:00,
2013-07-16 07:12:00,72.5,71.3,30.25,ENE,74,5.0,5.0,96,0.00,,,0.00,Wunderground v.1.15,2013-07-16 12:12:00,
2013-07-16 07:17:00,72.7,71.5,30.25,ESE,105,3.0,6.0,96,0.00,,,0.00,Wunderground v.1.15,2013-07-16 12:17:00,
2013-07-16 07:22:00,72.9,71.7,30.25,East,94,1.0,6.0,96,0.00,,,0.00,Wunderground v.1.15,2013-07-16 12:22:00,
2013-07-16 07:27:00,73.1,71.9,30.26,West,279,2.0,6.0,96,0.00,,,0.00,Wunderground v.1.15,2013-07-16 12:27:00,
2013-07-16 07:32:00,73.3,72.1,30.26,East,81,3.0,5.0,96,0.00,,,0.00,Wunderground v.1.15,2013-07-16 12:32:00,
2013-07-16 07:37:00,73.7,72.5,30.26,East,99,4.0,6.0,96,0.00,,,0.00,Wunderground v.1.15,2013-07-16 12:37:00,
2013-07-16 07:42:00,74.4,73.2,30.26,East,83,1.0,5.0,96,0.00,,,0.00,Wunderground v.1.15,2013-07-16 12:42:00,
2013-07-16 07:47:00,75.1,73.6,30.26,East,89,2.0,6.0,95,0.00,,,0.00,Wunderground v.1.15,2013-07-16 12:47:00,
2013-07-16 07:52:00,76.0,73.8,30.27,SE,125,4.0,7.0,93,0.00,,,0.00,Wunderground v.1.15,2013-07-16 12:52:00,
2013-07-16 07:57:00,76.9,73.7,30.27,East,92,2.0,7.0,90,0.00,,,0.00,Wunderground v.1.15,2013-07-16 12:57:00,
2013-07-16 08:02:00,77.8,73.6,30.27,East,97,1.0,6.0,87,0.00,,,0.00,Wunderground v.1.15,2013-07-16 13:02:00,
2013-07-16 08:07:00,78.4,73.9,30.27,West,279,1.0,6.0,86,0.00,,,0.00,Wunderground v.1.15,2013-07-16 13:07:00,
2013-07-16 08:12:00,79.3,74.0,30.27,ESE,122,3.0,7.0,84,0.00,,,0.00,Wunderground v.1.15,2013-07-16 13:12:00,
2013-07-16 08:17:00,80.1,74.1,30.27,East,92,4.0,9.0,82,0.00,,,0.00,Wunderground v.1.15,2013-07-16 13:17:00,
2013-07-16 08:22:00,80.7,74.3,30.27,West,279,6.0,12.0,81,0.00,,,0.00,Wunderground v.1.15,2013-07-16 13:22:00,
2013-07-16 08:27:00,81.2,74.1,30.28,ESE,111,3.0,12.0,79,0.00,,,0.00,Wunderground v.1.15,2013-07-16 13:27:00,
2013-07-16 08:32:00,81.8,73.9,30.28,SE,139,8.0,11.0,77,0.00,,,0.00,Wunderground v.1.15,2013-07-16 13:32:00,
2013-07-16 08:37:00,82.3,74.4,30.28,ESE,123,4.0,11.0,77,0.00,,,0.00,Wunderground v.1.15,2013-07-16 13:37:00,
2013-07-16 08:42:00,82.8,74.5,30.27,ESE,117,8.0,11.0,76,0.00,,,0.00,Wunderground v.1.15,2013-07-16 13:42:00,
2013-07-16 08:47:00,83.2,75.2,30.28,SE,130,5.0,12.0,77,0.00,,,0.00,Wunderground v.1.15,2013-07-16 13:47:00,
2013-07-16 08:52:00,83.6,75.2,30.28,SE,127,6.0,12.0,76,0.00,,,0.00,Wunderground v.1.15,2013-07-16 13:52:00,
2013-07-16 08:57:00,84.1,75.7,30.28,SE,137,1.0,12.0,76,0.00,,,0.00,Wunderground v.1.15,2013-07-16 13:57:00,
2013-07-16 09:02:00,84.6,75.8,30.28,ESE,117,4.0,10.0,75,0.00,,,0.00,Wunderground v.1.15,2013-07-16 14:02:00,
2013-07-16 09:07:00,85.2,75.1,30.28,SE,139,8.0,10.0,72,0.00,,,0.00,Wunderground v.1.15,2013-07-16 14:07:00,
2013-07-16 09:12:00,85.4,74.9,30.28,SE,138,10.0,12.0,71,0.00,,,0.00,Wunderground v.1.15,2013-07-16 14:12:00,
2013-07-16 09:17:00,85.3,74.4,30.28,West,279,11.0,12.0,70,0.00,,,0.00,Wunderground v.1.15,2013-07-16 14:17:00,
2013-07-16 09:22:00,85.4,74.1,30.28,SE,139,7.0,12.0,69,0.00,,,0.00,Wunderground v.1.15,2013-07-16 14:22:00,
2013-07-16 09:27:00,85.4,75.3,30.28,SSE,160,7.0,12.0,72,0.00,,,0.00,Wunderground v.1.15,2013-07-16 14:27:00,
2013-07-16 09:32:00,85.5,75.0,30.28,SE,133,4.0,8.0,71,0.00,,,0.00,Wunderground v.1.15,2013-07-16 14:32:00,
2013-07-16 09:37:00,85.9,75.0,30.28,SE,140,3.0,8.0,70,0.00,,,0.00,Wunderground v.1.15,2013-07-16 14:37:00,
2013-07-16 09:42:00,86.3,75.8,30.28,SSE,160,5.0,9.0,71,0.00,,,0.00,Wunderground v.1.15,2013-07-16 14:42:00,
2013-07-16 09:47:00,86.7,74.9,30.28,SE,126,5.0,9.0,68,0.00,,,0.00,Wunderground v.1.15,2013-07-16 14:47:00,
2013-07-16 09:52:00,87.4,75.5,30.27,SE,125,5.0,5.0,68,0.00,,,0.00,Wunderground v.1.15,2013-07-16 14:52:00,
2013-07-16 09:57:00,87.7,75.4,30.28,SE,132,7.0,7.0,67,0.00,,,0.00,Wunderground v.1.15,2013-07-16 14:57:00,
2013-07-16 10:02:00,87.8,75.9,30.27,West,279,4.0,6.0,68,0.00,,,0.00,Wunderground v.1.15,2013-07-16 15:02:00,
2013-07-16 10:07:00,87.9,76.5,30.27,ENE,74,3.0,6.0,69,0.00,,,0.00,Wunderground v.1.15,2013-07-16 15:07:00,
2013-07-16 10:12:00,88.3,75.5,30.27,East,79,4.0,5.0,66,0.00,,,0.00,Wunderground v.1.15,2013-07-16 15:12:00,
2013-07-16 10:17:00,88.6,75.8,30.27,SE,124,5.0,8.0,66,0.00,,,0.00,Wunderground v.1.15,2013-07-16 15:17:00,
2013-07-16 10:23:00,89.0,76.2,30.28,East,80,0.0,4.0,66,0.00,,,0.00,Wunderground v.1.15,2013-07-16 15:23:00,
2013-07-16 10:28:00,89.5,75.7,30.28,SE,142,4.0,9.0,64,0.00,,,0.00,Wunderground v.1.15,2013-07-16 15:28:00,
2013-07-16 10:33:00,89.4,75.1,30.28,SSE,164,5.0,7.0,63,0.00,,,0.00,Wunderground v.1.15,2013-07-16 15:33:00,
2013-07-16 10:38:00,89.3,76.0,30.27,West,279,2.0,7.0,65,0.00,,,0.00,Wunderground v.1.15,2013-07-16 15:38:00,
2013-07-16 10:42:00,89.5,76.6,30.28,SE,144,5.0,6.0,66,0.00,,,0.00,Wunderground v.1.15,2013-07-16 15:42:00,
2013-07-16 10:47:00,89.5,75.7,30.28,SE,134,3.0,7.0,64,0.00,,,0.00,Wunderground v.1.15,2013-07-16 15:47:00,
2013-07-16 10:53:00,89.5,76.2,30.28,West,279,5.0,7.0,65,0.00,,,0.00,Wunderground v.1.15,2013-07-16 15:53:00,
2013-07-16 10:58:00,89.6,75.3,30.28,SSE,152,6.0,7.0,63,0.00,,,0.00,Wunderground v.1.15,2013-07-16 15:58:00,
2013-07-16 11:03:00,89.9,77.0,30.27,West,279,6.0,6.0,66,0.00,,,0.00,Wunderground v.1.15,2013-07-16 16:03:00,
2013-07-16 11:08:00,90.1,75.3,30.28,West,279,2.0,9.0,62,0.00,,,0.00,Wunderground v.1.15,2013-07-16 16:08:00,
2013-07-16 11:13:00,90.1,76.3,30.27,ESE,107,1.0,5.0,64,0.00,,,0.00,Wunderground v.1.15,2013-07-16 16:13:00,
2013-07-16 11:18:00,90.0,75.2,30.28,ESE,121,0.0,6.0,62,0.00,,,0.00,Wunderground v.1.15,2013-07-16 16:18:00,
2013-07-16 11:23:00,90.1,74.8,30.27,SE,127,3.0,6.0,61,0.00,,,0.00,Wunderground v.1.15,2013-07-16 16:23:00,
2013-07-16 11:28:00,90.4,75.1,30.27,South,180,4.0,6.0,61,0.00,,,0.00,Wunderground v.1.15,2013-07-16 16:28:00,
2013-07-16 11:33:00,90.4,76.1,30.27,SE,142,4.0,7.0,63,0.00,,,0.00,Wunderground v.1.15,2013-07-16 16:33:00,
2013-07-16 11:38:00,90.4,75.1,30.27,SE,140,5.0,7.0,61,0.00,,,0.00,Wunderground v.1.15,2013-07-16 16:38:00,
2013-07-16 11:43:00,90.2,76.4,30.27,SE,140,2.0,5.0,64,0.00,,,0.00,Wunderground v.1.15,2013-07-16 16:43:00,
2013-07-16 11:48:00,90.1,74.8,30.27,SE,140,0.0,5.0,61,0.00,,,0.00,Wunderground v.1.15,2013-07-16 16:48:00,
2013-07-16 11:53:00,89.7,75.9,30.27,ENE,65,0.0,4.0,64,0.00,,,0.00,Wunderground v.1.15,2013-07-16 16:53:00,
2013-07-16 11:58:00,89.3,74.1,30.27,ENE,63,0.0,4.0,61,0.00,,,0.00,Wunderground v.1.15,2013-07-16 16:58:00,
2013-07-16 12:03:00,89.2,76.8,30.27,SE,126,5.0,7.0,67,0.00,,,0.00,Wunderground v.1.15,2013-07-16 17:03:00,
2013-07-16 12:08:00,89.4,75.1,30.26,SE,128,3.0,7.0,63,0.00,,,0.00,Wunderground v.1.15,2013-07-16 17:08:00,
2013-07-16 12:13:00,90.0,75.2,30.26,SE,128,0.0,3.0,62,0.00,,,0.00,Wunderground v.1.15,2013-07-16 17:13:00,
2013-07-16 12:18:00,90.7,75.4,30.26,SE,126,1.0,5.0,61,0.00,,,0.00,Wunderground v.1.15,2013-07-16 17:18:00,
2013-07-16 12:23:00,91.0,75.7,30.26,East,83,2.0,4.0,61,0.00,,,0.00,Wunderground v.1.15,2013-07-16 17:23:00,
2013-07-16 12:28:00,91.3,75.0,30.26,ENE,74,6.0,6.0,59,0.00,,,0.00,Wunderground v.1.15,2013-07-16 17:28:00,
2013-07-16 12:33:00,91.9,74.5,30.26,ENE,73,4.0,7.0,57,0.00,,,0.00,Wunderground v.1.15,2013-07-16 17:33:00,
2013-07-16 12:38:00,92.4,76.5,30.26,ENE,57,6.0,11.0,60,0.00,,,0.00,Wunderground v.1.15,2013-07-16 17:38:00,
2013-07-16 12:43:00,93.0,75.0,30.25,ENE,63,7.0,10.0,56,0.00,,,0.00,Wunderground v.1.15,2013-07-16 17:43:00,
2013-07-16 12:48:00,93.3,75.3,30.26,NE,53,6.0,10.0,56,0.00,,,0.00,Wunderground v.1.15,2013-07-16 17:48:00,
2013-07-16 12:53:00,93.1,76.1,30.26,ENE,76,10.0,10.0,58,0.00,,,0.00,Wunderground v.1.15,2013-07-16 17:53:00,
2013-07-16 12:58:00,93.1,75.6,30.26,ENE,63,10.0,10.0,57,0.00,,,0.00,Wunderground v.1.15,2013-07-16 17:58:00,
2013-07-16 13:03:00,93.2,77.7,30.26,ENE,67,5.0,11.0,61,0.00,,,0.00,Wunderground v.1.15,2013-07-16 18:03:00,
2013-07-16 13:08:00,93.4,76.4,30.26,East,83,3.0,11.0,58,0.00,,,0.00,Wunderground v.1.15,2013-07-16 18:08:00,
2013-07-16 13:13:00,93.5,76.0,30.25,East,79,4.0,10.0,57,0.00,,,0.00,Wunderground v.1.15,2013-07-16 18:13:00,
2013-07-16 13:18:00,93.3,74.7,30.25,NE,39,4.0,10.0,55,0.00,,,0.00,Wunderground v.1.15,2013-07-16 18:18:00,
2013-07-16 13:23:00,93.0,76.6,30.25,ENE,57,4.0,6.0,59,0.00,,,0.00,Wunderground v.1.15,2013-07-16 18:23:00,
2013-07-16 13:28:00,93.0,75.5,30.25,NE,50,8.0,11.0,57,0.00,,,0.00,Wunderground v.1.15,2013-07-16 18:28:00,
2013-07-16 13:33:00,93.0,75.5,30.25,NE,39,5.0,7.0,57,0.00,,,0.00,Wunderground v.1.15,2013-07-16 18:33:00,
2013-07-16 13:38:00,92.8,74.8,30.24,NNE,30,2.0,9.0,56,0.00,,,0.00,Wunderground v.1.15,2013-07-16 18:38:00,
2013-07-16 13:43:00,92.8,75.8,30.24,NE,50,7.0,11.0,58,0.00,,,0.00,Wunderground v.1.15,2013-07-16 18:43:00,
2013-07-16 13:48:00,92.7,75.2,30.25,NNE,20,4.0,11.0,57,0.00,,,0.00,Wunderground v.1.15,2013-07-16 18:48:00,
2013-07-16 13:53:00,92.4,75.0,30.24,ENE,57,6.0,11.0,57,0.00,,,0.00,Wunderground v.1.15,2013-07-16 18:53:00,
2013-07-16 13:58:00,92.3,74.9,30.24,ENE,67,4.0,11.0,57,0.00,,,0.00,Wunderground v.1.15,2013-07-16 18:58:00,
2013-07-16 14:03:00,92.1,75.7,30.24,NE,53,6.0,6.0,59,0.00,,,0.00,Wunderground v.1.15,2013-07-16 19:03:00,
2013-07-16 14:08:00,91.6,77.7,30.24,East,79,2.0,11.0,64,0.00,,,0.00,Wunderground v.1.15,2013-07-16 19:08:00,
2013-07-16 14:13:00,91.3,75.5,30.24,ENE,63,6.0,7.0,60,0.00,,,0.00,Wunderground v.1.15,2013-07-16 19:13:00,
2013-07-16 14:18:00,91.5,77.1,30.24,NE,50,6.0,11.0,63,0.00,,,0.00,Wunderground v.1.15,2013-07-16 19:18:00,
2013-07-16 14:19:00,91.6,75.2,30.24,ENE,65,7.0,11.0,59,0.00,,,0.00,Wunderground v.1.15,2013-07-16 19:19:00,
2013-07-16 14:24:00,91.9,75.5,30.24,NNE,24,2.0,7.0,59,0.00,,,0.00,Wunderground v.1.15,2013-07-16 19:24:00,
2013-07-16 14:29:00,92.0,74.6,30.24,ENE,67,9.0,9.0,57,0.00,,,0.00,Wunderground v.1.15,2013-07-16 19:29:00,
2013-07-16 14:34:00,92.2,76.3,30.24,NE,51,10.0,15.0,60,0.00,,,0.00,Wunderground v.1.15,2013-07-16 19:34:00,
2013-07-16 14:39:00,92.1,75.2,30.24,NE,44,9.0,15.0,58,0.00,,,0.00,Wunderground v.1.15,2013-07-16 19:39:00,
2013-07-16 14:44:00,91.7,75.8,30.24,NE,36,5.0,10.0,60,0.00,,,0.00,Wunderground v.1.15,2013-07-16 19:44:00,
2013-07-16 14:49:00,91.2,75.9,30.24,NNE,32,6.0,10.0,61,0.00,,,0.00,Wunderground v.1.15,2013-07-16 19:49:00,
2013-07-16 14:54:00,90.5,75.7,30.24,NE,47,9.0,10.0,62,0.00,,,0.00,Wunderground v.1.15,2013-07-16 19:54:00,
2013-07-16 14:59:00,90.0,75.7,30.24,ENE,77,7.0,12.0,63,0.00,,,0.00,Wunderground v.1.15,2013-07-16 19:59:00,
2013-07-16 15:04:00,89.8,76.0,30.23,ENE,61,9.0,16.0,64,0.00,,,0.00,Wunderground v.1.15,2013-07-16 20:04:00,
2013-07-16 15:09:00,89.7,74.9,30.24,NE,50,5.0,16.0,62,0.00,,,0.00,Wunderground v.1.15,2013-07-16 20:09:00,
2013-07-16 15:14:00,89.7,75.4,30.24,NE,48,0.0,9.0,63,0.00,,,0.00,Wunderground v.1.15,2013-07-16 20:14:00,
2013-07-16 15:19:00,89.9,74.2,30.24,ENE,72,0.0,9.0,60,0.00,,,0.00,Wunderground v.1.15,2013-07-16 20:19:00,
2013-07-16 15:24:00,90.1,75.3,30.23,West,279,11.0,12.0,62,0.00,,,0.00,Wunderground v.1.15,2013-07-16 20:24:00,
2013-07-16 15:29:00,90.3,75.5,30.23,NE,47,11.0,13.0,62,0.00,,,0.00,Wunderground v.1.15,2013-07-16 20:29:00,
2013-07-16 15:34:00,90.2,75.4,30.23,NE,46,4.0,12.0,62,0.00,,,0.00,Wunderground v.1.15,2013-07-16 20:34:00,
2013-07-16 15:39:00,90.1,75.8,30.23,NE,51,2.0,12.0,63,0.00,,,0.00,Wunderground v.1.15,2013-07-16 20:39:00,
2013-07-16 15:44:00,89.8,74.1,30.23,East,83,1.0,7.0,60,0.00,,,0.00,Wunderground v.1.15,2013-07-16 20:44:00,
2013-07-16 15:49:00,89.6,76.7,30.23,ENE,73,7.0,13.0,66,0.00,,,0.00,Wunderground v.1.15,2013-07-16 20:49:00,
2013-07-16 15:54:00,89.3,76.0,30.22,East,80,1.0,6.0,65,0.00,,,0.00,Wunderground v.1.15,2013-07-16 20:54:00,
2013-07-16 15:59:00,89.1,77.6,30.22,NE,49,3.0,7.0,69,0.00,,,0.00,Wunderground v.1.15,2013-07-16 20:59:00,
2013-07-16 16:04:00,88.8,76.9,30.22,ENE,57,6.0,9.0,68,0.00,,,0.00,Wunderground v.1.15,2013-07-16 21:04:00,
2013-07-16 16:09:00,88.8,75.0,30.22,ENE,62,4.0,12.0,64,0.00,,,0.00,Wunderground v.1.15,2013-07-16 21:09:00,
2013-07-16 16:14:00,89.2,74.0,30.22,NE,53,4.0,6.0,61,0.00,,,0.00,Wunderground v.1.15,2013-07-16 21:14:00,
2013-07-16 16:19:00,89.7,74.5,30.22,East,81,3.0,6.0,61,0.00,,,0.00,Wunderground v.1.15,2013-07-16 21:19:00,
2013-07-16 16:24:00,90.4,74.6,30.22,ENE,66,5.0,10.0,60,0.00,,,0.00,Wunderground v.1.15,2013-07-16 21:24:00,
2013-07-16 16:29:00,91.0,75.2,30.22,NE,56,4.0,10.0,60,0.00,,,0.00,Wunderground v.1.15,2013-07-16 21:29:00,
2013-07-16 16:35:00,91.6,76.2,30.22,ENE,75,9.0,14.0,61,0.00,,,0.00,Wunderground v.1.15,2013-07-16 21:35:00,
2013-07-16 16:40:00,92.5,76.6,30.22,West,279,2.0,5.0,60,0.00,,,0.00,Wunderground v.1.15,2013-07-16 21:40:00,
2013-07-16 16:45:00,93.3,75.3,30.22,ENE,63,1.0,7.0,56,0.00,,,0.00,Wunderground v.1.15,2013-07-16 21:45:00,
2013-07-16 16:50:00,93.9,74.7,30.22,East,84,3.0,3.0,54,0.00,,,0.00,Wunderground v.1.15,2013-07-16 21:50:00,
2013-07-16 16:55:00,94.4,75.7,30.22,ENE,77,5.0,9.0,55,0.00,,,0.00,Wunderground v.1.15,2013-07-16 21:55:00,
2013-07-16 17:00:00,94.9,75.7,30.22,East,97,2.0,3.0,54,0.00,,,0.00,Wunderground v.1.15,2013-07-16 22:00:00,
2013-07-16 17:05:00,95.1,75.8,30.22,ESE,104,4.0,5.0,54,0.00,,,0.00,Wunderground v.1.15,2013-07-16 22:05:00,
2013-07-16 17:10:00,95.3,74.3,30.21,ENE,67,4.0,4.0,51,0.00,,,0.00,Wunderground v.1.15,2013-07-16 22:10:00,
2013-07-16 17:15:00,95.4,75.6,30.21,ESE,112,5.0,9.0,53,0.00,,,0.00,Wunderground v.1.15,2013-07-16 22:15:00,
2013-07-16 17:20:00,95.3,75.5,30.21,East,82,1.0,5.0,53,0.00,,,0.00,Wunderground v.1.15,2013-07-16 22:20:00,
2013-07-16 17:25:00,95.4,76.1,30.21,ENE,70,5.0,11.0,54,0.00,,,0.00,Wunderground v.1.15,2013-07-16 22:25:00,
2013-07-16 17:30:00,95.4,76.1,30.21,ENE,67,6.0,6.0,54,0.00,,,0.00,Wunderground v.1.15,2013-07-16 22:30:00,
2013-07-16 17:35:00,94.8,75.6,30.21,NE,40,3.0,7.0,54,0.00,,,0.00,Wunderground v.1.15,2013-07-16 22:35:00,
2013-07-16 17:40:00,94.3,77.2,30.21,East,84,1.0,5.0,58,0.00,,,0.00,Wunderground v.1.15,2013-07-16 22:40:00,
2013-07-16 17:45:00,94.1,74.9,30.21,ESE,108,2.0,5.0,54,0.00,,,0.00,Wunderground v.1.15,2013-07-16 22:45:00,
2013-07-16 17:50:00,94.0,74.8,30.21,West,279,1.0,3.0,54,0.00,,,0.00,Wunderground v.1.15,2013-07-16 22:50:00,
2013-07-16 17:55:00,94.0,75.9,30.21,East,97,3.0,5.0,56,0.00,,,0.00,Wunderground v.1.15,2013-07-16 22:55:00,
2013-07-16 18:00:00,93.5,74.4,30.21,East,88,0.0,2.0,54,0.00,,,0.00,Wunderground v.1.15,2013-07-16 23:00:00,
2013-07-16 18:05:00,92.8,74.8,30.21,ESE,103,2.0,5.0,56,0.00,,,0.00,Wunderground v.1.15,2013-07-16 23:05:00,
2013-07-16 18:10:00,92.3,74.3,30.21,ENE,72,5.0,7.0,56,0.00,,,0.00,Wunderground v.1.15,2013-07-16 23:10:00,
2013-07-16 18:15:00,91.7,74.3,30.20,East,94,3.0,7.0,57,0.00,,,0.00,Wunderground v.1.15,2013-07-16 23:15:00,
2013-07-16 18:20:00,91.1,73.7,30.21,ESE,118,7.0,7.0,57,0.00,,,0.00,Wunderground v.1.15,2013-07-16 23:20:00,
2013-07-16 18:25:00,90.6,73.3,30.20,ESE,110,0.0,8.0,57,0.00,,,0.00,Wunderground v.1.15,2013-07-16 23:25:00,
2013-07-16 18:30:00,90.2,74.9,30.21,ESE,113,5.0,5.0,61,0.00,,,0.00,Wunderground v.1.15,2013-07-16 23:30:00,
2013-07-16 18:35:00,89.7,74.9,30.20,East,101,3.0,5.0,62,0.00,,,0.00,Wunderground v.1.15,2013-07-16 23:35:00,
2013-07-16 18:40:00,89.3,74.6,30.21,ESE,120,6.0,6.0,62,0.00,,,0.00,Wunderground v.1.15,2013-07-16 23:40:00,
2013-07-16 18:45:00,89.0,75.7,30.21,West,279,6.0,6.0,65,0.00,,,0.00,Wunderground v.1.15,2013-07-16 23:45:00,
2013-07-16 18:50:00,88.7,75.9,30.21,East,87,2.0,2.0,66,0.00,,,0.00,Wunderground v.1.15,2013-07-16 23:50:00,
2013-07-16 18:55:00,88.3,74.1,30.21,SE,126,3.0,6.0,63,0.00,,,0.00,Wunderground v.1.15,2013-07-16 23:55:00,
2013-07-16 19:00:00,87.9,75.1,30.21,SE,125,0.0,3.0,66,0.00,,,0.00,Wunderground v.1.15,2013-07-17 00:00:00,
2013-07-16 19:05:00,87.5,74.7,30.21,SE,125,3.0,4.0,66,0.00,,,0.00,Wunderground v.1.15,2013-07-17 00:05:00,
2013-07-16 19:10:00,87.2,75.8,30.21,SE,125,0.0,1.0,69,0.00,,,0.00,Wunderground v.1.15,2013-07-17 00:10:00,
2013-07-16 19:15:00,86.8,75.4,30.20,West,279,1.0,3.0,69,0.00,,,0.00,Wunderground v.1.15,2013-07-17 00:15:00,
2013-07-16 19:20:00,86.4,75.5,30.21,East,97,1.0,1.0,70,0.00,,,0.00,Wunderground v.1.15,2013-07-17 00:20:00,
2013-07-16 19:25:00,86.0,75.9,30.21,West,279,1.0,3.0,72,0.00,,,0.00,Wunderground v.1.15,2013-07-17 00:25:00,
2013-07-16 19:30:00,85.6,75.9,30.21,East,94,1.0,2.0,73,0.00,,,0.00,Wunderground v.1.15,2013-07-17 00:30:00,
2013-07-16 19:35:00,85.2,76.0,30.21,East,90,3.0,4.0,74,0.00,,,0.00,Wunderground v.1.15,2013-07-17 00:35:00,
2013-07-16 19:40:00,84.7,74.7,30.21,East,90,4.0,4.0,72,0.00,,,0.00,Wunderground v.1.15,2013-07-17 00:40:00,
2013-07-16 19:45:00,84.4,75.2,30.21,East,90,3.0,4.0,74,0.00,,,0.00,Wunderground v.1.15,2013-07-17 00:45:00,
2013-07-16 19:50:00,84.2,76.2,30.21,East,90,3.0,3.0,77,0.00,,,0.00,Wunderground v.1.15,2013-07-17 00:50:00,
2013-07-16 19:55:00,83.9,75.9,30.21,West,279,4.0,5.0,77,0.00,,,0.00,Wunderground v.1.15,2013-07-17 00:55:00,
2013-07-16 20:00:00,83.6,75.6,30.21,East,79,5.0,5.0,77,0.00,,,0.00,Wunderground v.1.15,2013-07-17 01:00:00,
2013-07-16 20:05:00,83.1,75.5,30.21,ENE,78,4.0,5.0,78,0.00,,,0.00,Wunderground v.1.15,2013-07-17 01:05:00,
2013-07-16 20:10:00,82.7,75.1,30.21,East,80,2.0,4.0,78,0.00,,,0.00,Wunderground v.1.15,2013-07-17 01:10:00,
2013-07-16 20:15:00,82.4,74.8,30.21,ENE,77,1.0,4.0,78,0.00,,,0.00,Wunderground v.1.15,2013-07-17 01:15:00,
2013-07-16 20:20:00,81.9,74.4,30.21,East,80,4.0,4.0,78,0.00,,,0.00,Wunderground v.1.15,2013-07-17 01:20:00,
2013-07-16 20:25:00,81.5,74.4,30.21,ENE,78,4.0,5.0,79,0.00,,,0.00,Wunderground v.1.15,2013-07-17 01:25:00,
2013-07-16 20:30:00,81.1,74.3,30.21,ENE,75,5.0,6.0,80,0.00,,,0.00,Wunderground v.1.15,2013-07-17 01:30:00,
2013-07-16 20:35:00,80.8,74.0,30.22,ENE,75,5.0,6.0,80,0.00,,,0.00,Wunderground v.1.15,2013-07-17 01:35:00,
2013-07-16 20:40:00,80.6,74.6,30.22,ENE,75,5.0,5.0,82,0.00,,,0.00,Wunderground v.1.15,2013-07-17 01:40:00,
2013-07-16 20:45:00,80.5,74.5,30.22,ENE,72,4.0,5.0,82,0.00,,,0.00,Wunderground v.1.15,2013-07-17 01:45:00,
2013-07-16 20:50:00,80.2,74.2,30.22,ENE,74,4.0,5.0,82,0.00,,,0.00,Wunderground v.1.15,2013-07-17 01:50:00,
2013-07-16 20:55:00,79.9,74.3,30.22,ENE,74,5.0,6.0,83,0.00,,,0.00,Wunderground v.1.15,2013-07-17 01:55:00,
2013-07-16 21:00:00,79.7,74.1,30.23,ENE,76,5.0,6.0,83,0.00,,,0.00,Wunderground v.1.15,2013-07-17 02:00:00,
2013-07-16 21:05:00,79.4,73.8,30.23,ENE,74,5.0,6.0,83,0.00,,,0.00,Wunderground v.1.15,2013-07-17 02:05:00,
2013-07-16 21:10:00,79.1,73.5,30.24,ENE,74,5.0,6.0,83,0.00,,,0.00,Wunderground v.1.15,2013-07-17 02:10:00,
2013-07-16 21:15:00,78.9,73.7,30.24,ENE,70,7.0,7.0,84,0.00,,,0.00,Wunderground v.1.15,2013-07-17 02:15:00,
2013-07-16 21:20:00,78.6,73.4,30.24,West,279,7.0,7.0,84,0.00,,,0.00,Wunderground v.1.15,2013-07-17 02:20:00,
2013-07-16 21:25:00,78.4,73.2,30.24,ENE,71,6.0,8.0,84,0.00,,,0.00,Wunderground v.1.15,2013-07-17 02:25:00,
2013-07-16 21:30:00,78.2,73.3,30.24,ENE,69,6.0,7.0,85,0.00,,,0.00,Wunderground v.1.15,2013-07-17 02:30:00,
2013-07-16 21:35:00,78.0,73.1,30.23,ENE,71,7.0,7.0,85,0.00,,,0.00,Wunderground v.1.15,2013-07-17 02:35:00,
2013-07-16 21:40:00,77.8,72.9,30.24,ENE,70,7.0,8.0,85,0.00,,,0.00,Wunderground v.1.15,2013-07-17 02:40:00,
2013-07-16 21:45:00,77.6,72.7,30.24,ENE,70,7.0,9.0,85,0.00,,,0.00,Wunderground v.1.15,2013-07-17 02:45:00,
2013-07-16 21:50:00,77.4,72.5,30.24,ENE,66,9.0,9.0,85,0.00,,,0.00,Wunderground v.1.15,2013-07-17 02:50:00,
2013-07-16 21:55:00,77.3,72.8,30.24,ENE,65,9.0,9.0,86,0.00,,,0.00,Wunderground v.1.15,2013-07-17 02:55:00,
2013-07-16 22:00:00,77.1,72.6,30.24,ENE,63,7.0,8.0,86,0.00,,,0.00,Wunderground v.1.15,2013-07-17 03:00:00,
2013-07-16 22:05:00,77.1,72.9,30.24,ENE,59,6.0,8.0,87,0.00,,,0.00,Wunderground v.1.15,2013-07-17 03:05:00,
2013-07-16 22:10:00,77.0,72.8,30.24,ENE,58,5.0,6.0,87,0.00,,,0.00,Wunderground v.1.15,2013-07-17 03:10:00,
2013-07-16 22:15:00,76.9,72.7,30.24,NE,56,5.0,6.0,87,0.00,,,0.00,Wunderground v.1.15,2013-07-17 03:15:00,
2013-07-16 22:20:00,76.9,72.7,30.25,ENE,59,6.0,6.0,87,0.00,,,0.00,Wunderground v.1.15,2013-07-17 03:20:00,
2013-07-16 22:25:00,76.8,72.6,30.25,NE,56,5.0,7.0,87,0.00,,,0.00,Wunderground v.1.15,2013-07-17 03:25:00,
2013-07-16 22:30:00,76.7,72.5,30.25,ENE,57,6.0,6.0,87,0.00,,,0.00,Wunderground v.1.15,2013-07-17 03:30:00,
2013-07-16 22:35:00,76.6,72.4,30.25,ENE,58,6.0,6.0,87,0.00,,,0.00,Wunderground v.1.15,2013-07-17 03:35:00,
2013-07-16 22:40:00,76.6,72.8,30.25,ENE,57,5.0,6.0,88,0.00,,,0.00,Wunderground v.1.15,2013-07-17 03:40:00,
2013-07-16 22:45:00,76.5,72.7,30.25,ENE,57,6.0,6.0,88,0.00,,,0.00,Wunderground v.1.15,2013-07-17 03:45:00,
2013-07-16 22:50:00,76.4,72.9,30.25,ENE,57,6.0,6.0,89,0.00,,,0.00,Wunderground v.1.15,2013-07-17 03:50:00,
2013-07-16 22:55:00,76.4,72.9,30.25,NE,56,6.0,7.0,89,0.00,,,0.00,Wunderground v.1.15,2013-07-17 03:55:00,
2013-07-16 23:00:00,76.3,72.8,30.25,ENE,59,5.0,6.0,89,0.00,,,0.00,Wunderground v.1.15,2013-07-17 04:00:00,
2013-07-16 23:01:00,76.3,73.1,30.25,ENE,57,5.0,6.0,90,0.00,,,0.00,Wunderground v.1.15,2013-07-17 04:01:00,
2013-07-16 23:06:00,76.3,73.1,30.25,ENE,58,4.0,6.0,90,0.00,,,0.00,Wunderground v.1.15,2013-07-17 04:06:00,
2013-07-16 23:11:00,76.3,73.1,30.25,ENE,59,5.0,5.0,90,0.00,,,0.00,Wunderground v.1.15,2013-07-17 04:11:00,
2013-07-16 23:16:00,76.2,72.7,30.26,ENE,57,5.0,5.0,89,0.00,,,0.00,Wunderground v.1.15,2013-07-17 04:16:00,
2013-07-16 23:21:00,76.2,73.1,30.26,West,279,4.0,5.0,90,0.00,,,0.00,Wunderground v.1.15,2013-07-17 04:21:00,
2013-07-16 23:26:00,76.1,72.6,30.26,West,279,4.0,5.0,89,0.00,,,0.00,Wunderground v.1.15,2013-07-17 04:26:00,
2013-07-16 23:31:00,76.1,72.6,30.25,NE,54,5.0,6.0,89,0.00,,,0.00,Wunderground v.1.15,2013-07-17 04:31:00,
2013-07-16 23:36:00,76.0,72.5,30.26,ENE,57,6.0,6.0,89,0.00,,,0.00,Wunderground v.1.15,2013-07-17 04:36:00,
2013-07-16 23:41:00,76.0,72.5,30.26,ENE,59,5.0,6.0,89,0.00,,,0.00,Wunderground v.1.15,2013-07-17 04:41:00,
2013-07-16 23:46:00,75.9,72.4,30.26,ENE,58,6.0,7.0,89,0.00,,,0.00,Wunderground v.1.15,2013-07-17 04:46:00,
2013-07-16 23:51:00,75.8,72.7,30.26,ENE,57,6.0,7.0,90,0.00,,,0.00,Wunderground v.1.15,2013-07-17 04:51:00,
2013-07-16 23:55:00,75.8,72.7,30.26,ENE,58,6.0,7.0,90,0.00,,,0.00,Wunderground v.1.15,2013-07-17 04:55:00,
2013-07-16 23:59:00,75.7,72.6,30.25,ENE,59,6.0,7.0,90,0.00,,,0.00,Wunderground v.1.15,2013-07-17 04:59:00,